This demonstration page uses our WeatherBlox Daily Observations layout. Learn more.

Left ArrowRight Arrow

Hourly Observations for May 17, 2015

Temp ( °F °C ) Dew Point ( °F °C ) Humidity (%) Winds ( mph kmh ) Pressure ( in mb ) Visibility ( mi km ) Precip ( " mm )
12:58 am 00:58 Cloudy 63 17.3 61 16.2 93 93 E 16 26 29.64 1004 10 16 0.09 2.29
1:18 am 01:18 Cloudy 64 18 61 16 88 88 ESE 13 20 29.62 1003 10 16 0.00 0.00
1:58 am 01:58 Cloudy 63 17.4 61 15.9 91 91 S 5 7 29.62 1003 10 16 0.00 0.03
2:58 am 02:58 Clear 62 16.7 60 15.8 94 94 ESE 8 13 29.61 1003 10 16 0.00 0.00
3:58 am 03:58 Clear 61 16.2 60 15.3 94 94 SE 7 11 29.60 1002 10 16 0.00 0.00
4:58 am 04:58 Clear 61 16 58 14.7 92 92 SSE 6 9 29.60 1002 10 16 0.00 0.00
5:16 am 05:16 Mostly Cloudy 61 16 59 15 94 94 SSE 7 11 29.62 1003 10 16 0.00 0.00
5:58 am 05:58 Cloudy 61 16.3 59 15 92 92 SE 9 15 29.60 1003 10 16 0.00 0.00
6:58 am 06:58 Cloudy 62 16.7 59 15.2 91 91 S 12 19 29.63 1003 10 16 0.00 0.00
7:58 am 07:58 Cloudy 63 17.1 60 15.3 89 89 S 7 11 29.65 1004 10 16 0.00 0.00
8:21 am 08:21 Mostly Cloudy 64 18 61 16 88 88 S 8 13 29.65 1004 10 16 0.00 0.00
8:24 am 08:24 Mostly Cloudy 64 18 61 16 88 88 S 8 13 29.65 1004 10 16 0.00 0.00
8:58 am 08:58 Mostly Cloudy 65 18.3 61 16.2 88 88 S 8 13 29.64 1004 10 16 0.00 0.00
9:10 am 09:10 Mostly Cloudy 66 19 61 16 83 83 S 8 13 29.65 1004 10 16 0.00 0.00
9:14 am 09:14 Mostly Cloudy 66 19 63 17 88 88 SSE 8 13 29.65 1004 10 16 0.00 0.00
9:27 am 09:27 Mostly Cloudy 66 19 63 17 88 88 S 10 17 29.62 1003 10 16 0.00 0.00
9:58 am 09:58 Mostly Cloudy 69 20.3 62 16.5 79 79 S 14 22 29.62 1003 10 16 0.00 0.00
10:01 am 10:01 Partly Cloudy 70 21 63 17 78 78 S 14 22 29.59 1002 10 16 0.00 0.00
10:58 am 10:58 Mostly Cloudy 70 21.1 60 15.7 71 71 S 14 22 29.62 1003 10 16 0.00 0.00
10:59 am 10:59 Mostly Cloudy with Light Rain 70 21 61 16 73 73 S 14 22 29.59 1002 10 16 0.00 0.00
11:06 am 11:06 Partly Cloudy 70 21 61 16 73 73 S 10 17 29.59 1002 9 14 0.00 0.00
11:58 am 11:58 Mostly Sunny 71 21.5 60 15.5 69 69 S 16 26 29.63 1004 10 16 0.00 0.03
12:58 pm 12:58 Sunny 73 22.5 58 14.5 61 61 SSW 16 26 29.66 1005 10 16 0.00 0.00
1:58 pm 13:58 Partly Cloudy 73 23 58 14.2 58 58 SSW 14 22 29.70 1006 10 16 0.00 0.00
2:58 pm 14:58 Partly Cloudy 76 24.6 56 13.4 50 50 SW 17 28 29.70 1006 10 16 0.00 0.00
3:58 pm 15:58 Mostly Sunny 77 25.1 59 14.9 53 53 SW 14 22 29.72 1007 10 16 0.00 0.00
4:58 pm 16:58 Mostly Sunny 79 26.1 51 10.8 38 38 WSW 21 33 29.75 1008 10 16 0.00 0.00
5:58 pm 17:58 Mostly Sunny 79 26.1 53 11.8 41 41 W 13 20 29.77 1008 10 16 0.00 0.00
6:58 pm 18:58 Sunny 77 25 55 12.5 46 46 WNW 13 20 29.80 1009 10 16 0.00 0.00
7:21 pm 19:21 Mostly Cloudy with Thunderstorms 75 24 52 11 44 44 WNW 10 17 29.74 1007 10 16 0.00 0.00
7:49 pm 19:49 Mostly Cloudy with Thunderstorms 73 23 52 11 47 47 W 12 19 29.80 1009 10 16 0.00 0.00
7:58 pm 19:58 Partly Cloudy with Thunderstorms 73 23 54 12 50 50 SW 12 19 29.85 1011 10 16 0.00 0.03
8:03 pm 20:03 Partly Cloudy with Light Rain 72 22 57 14 61 61 WSW 21 33 29.85 1011 10 16 0.00 0.00
8:31 pm 20:31 Mostly Sunny 64 18 59 15 83 83 SW 9 15 29.85 1011 10 16 0.00 0.00
8:38 pm 20:38 Mostly Clear with Light Rain 64 18 59 15 83 83 SW 7 11 29.85 1011 10 16 0.00 0.00
8:41 pm 20:41 Mostly Clear with Light Rain 64 18 59 15 83 83 WSW 6 9 29.85 1011 10 16 0.00 0.00
8:48 pm 20:48 Partly Cloudy 64 18 59 15 83 83 NW 2 4 29.85 1011 10 16 0.00 0.00
8:58 pm 20:58 Partly Cloudy 64 17.5 59 15.2 86 86 NNW 6 9 29.87 1012 10 16 0.02 0.51
9:33 pm 21:33 Mostly Cloudy with Light Rain 64 18 57 14 78 78 SSW 7 11 29.88 1012 10 16 0.00 0.00
9:49 pm 21:49 Partly Cloudy 64 18 59 15 83 83 VRB 1 2 29.88 1012 10 16 0.00 0.00
9:58 pm 21:58 Mostly Cloudy 63 17.3 59 15 86 86 N 2 4 29.92 1013 10 16 0.00 0.03
10:36 pm 22:36 Partly Cloudy with Light Rain 64 18 57 14 78 78 VRB 6 9 29.91 1013 10 16 0.00 0.00
10:55 pm 22:55 Partly Cloudy 63 17 59 15 88 88 NNW 7 11 29.91 1013 10 16 0.00 0.00
10:58 pm 22:58 Partly Cloudy 63 17.4 58 14.6 84 84 NW 8 13 29.93 1014 10 16 0.00 0.03
11:20 pm 23:20 Partly Cloudy with Drizzle 64 18 57 14 78 78 N 9 15 29.91 1013 10 16 0.00 0.00
11:33 pm 23:33 Mostly Cloudy 64 18 55 13 73 73 N 10 17 29.91 1013 10 16 0.00 0.00
11:58 pm 23:58 Mostly Cloudy 63 17.2 54 12.1 72 72 NNW 8 13 29.95 1014 10 16 0.01 0.25

Powered by AerisWeather